Weather in Gresovskiy

Russia / Republic of Crimea     45°00′27″N   34°01′39″E
temp.,
°C
wind,
m/s
gust,
m/s
humid.,
%
clouds,
%
prec.,
mm/h
press.,
hPa
HPBL,
m
25 february, thu
thu2500:00−1ene226979 0.0 103673
03:00−1e127350 0.0 103638
06:00−1se11825 0.0 103626
09:00+1s127935 0.0 1036103
12:00+5w225888 0.0 1035427
15:00+6wnw336365 0.0 1034484
18:00+3wsw247894 0.0 1033177
21:00+2sw348197 0.0 1033131
26 february, fri
fri2600:00+2ssw358690 0.0 1032112
03:00+3ssw359192 0.0 1032125
06:00+4ssw3494100 0.0 1030110
09:00+5sw359299 0.0 1030205
12:00+7sw458692 0.0 1029450
15:00+8sw568195 0.0 1028542
18:00+7ssw468659 0.0 1026243
21:00+5ssw479230 0.0 1026149
27 february, sat
sat2700:00+4ssw49930 0.0 1024207
03:00+4ssw510940 0.0 1023252
06:00+4ssw510928 0.0 1021231
09:00+5ssw510854 0.0 1021352
12:00+10wsw79740 0.0 1019641
15:00+10wsw797510 0.0 1018702
18:00+7sw578896 0.1 1017471
21:00+6w359698 0.3 1017310
28 february, sun
sun2800:00+5nnw5895100 3.3 1017456
03:00+4nnw4788100 4.6 1017664
06:00+3wnw3779100 0.1 1018592
09:00+2nw4686100 0.1 1019631
12:00+2wnw4693100 0.2 1020462
15:00+4nw4573100 0.8 1020816
18:00+2nw4691100 0.6 1021455
21:00+1nnw3595100 1.0 1023362
1 march, mon
mon100:00+1n279396 0.4 1025477
03:00−1n259787 0.5 1026254
06:000n349596 0.1 1027299
09:000n349298 0.3 1029323
12:00+1n338097 0.1 1030547
15:00+2n336996 0.2 1031799
18:00+1n4477100 0.0 1031571
21:000nne368099 0.1 1033431